Overview Statistics Trail Chart Weather Telemetry Raw packets
 

This is the latest recevied weather packets stored in our database for station/object K7KAR-2. If no packets are shown the sender has not sent any weather packets the latest 10 day(s).

<< 97 98 99 100 101 102 103 >>
Time Temp. Humidity Pressure Rain* Wind** Luminosity Snow
1787887396 21.67° C 54% 1014.9 hPa 0 mm - 0 W/m² -
1787887096 22.22° C 51% 1014.8 hPa 0 mm - 0 W/m² -
1787886792 22.22° C 49% 1014.7 hPa 0 mm - 0 W/m² -
1787886491 21.67° C 48% 1014.6 hPa 0 mm - 0 W/m² -
1787886187 21.11° C 52% 1014.7 hPa 0 mm - 0 W/m² -
1787885885 22.22° C 52% 1014.5 hPa 0 mm - 0 W/m² -
1787885584 22.78° C 46% 1014.3 hPa 0 mm - 0 W/m² -
1787885283 22.78° C 48% 1014.3 hPa 0 mm - 0 W/m² -
1787884978 21.67° C 49% 1014.3 hPa 0 mm - 0 W/m² -
1787884673 21.67° C 53% 1014 hPa 0 mm - 0 W/m² -
1787884368 21.67° C 54% 1014.6 hPa 0 mm - 0 W/m² -
1787884063 22.22° C 53% 1014 hPa 0 mm - 0 W/m² -
1787883759 22.22° C 49% 1014.1 hPa 0 mm - 0 W/m² -
1787883455 22.78° C 47% 1014 hPa 0 mm - 0 W/m² -
1787883157 22.78° C 45% 1014.5 hPa 0 mm - 1 W/m² -
1787882849 23.33° C 45% 1014.4 hPa 0 mm - 2 W/m² -
1787882545 23.89° C 44% 1014.1 hPa 0 mm - 3 W/m² -
1787882241 23.33° C 44% 1014.5 hPa 0 mm - 4 W/m² -
1787881630 23.89° C 45% 1014.3 hPa 0 mm - 10 W/m² -
1787881326 23.89° C 45% 1014.5 hPa 0 mm - 14 W/m² -
1787881021 23.89° C 44% 1014.6 hPa 0 mm - 18 W/m² -
1787880716 24.44° C 42% 1014.5 hPa 0 mm - 23 W/m² -
1787880415 25° C 43% 1014.7 hPa 0 mm - 27 W/m² -
1787880109 24.44° C 44% 1014.8 hPa 0 mm - 31 W/m² -
1787879804 25° C 42% 1014.7 hPa 0 mm - 32 W/m² -

* Rain latest hour (hover to see other rain measurements)
** Current wind speed in m/s (hover to see current wind gust speed)